Zurück zum Katalog

COSMOS 1732

AktivMilitärLEO
NORAD 16593·PAYLOAD·🇷🇺 Russia

Gestartet Feb 11, 1986 von Plesetsk Cosmodrome

Loading…

Nächste Überflüge (nächste 24 Stunden)

TLE

AktuellSource: Space-Track

Epoche: Sep 14, 2026, 12:31 UTC

1 16593U 86015A   26257.52220704 -.00000006  00000-0  81418-4 0  9991
2 16593  73.6116 185.6391 0027298 297.3535  62.4731 12.41027946838902

Verfolge COSMOS 1732 in Echtzeit mit AllMySat

Download on the App Store